EW9280 Weather Reports


time (UTC)temp
C
wind
direction
speed
KPH
gust
KPH
rain 1hr
cm
rain 24hr
cm
rain mn
cm
humidity
%
barometer
mb
20260507100002 15 5 0.0 4.8 0.00 0.03 0.00 85 1009.1
20260507094559 15 46 0.0 4.8 0.00 0.03 0.00 84 1009.2
20260507093102 15 304 1.6 4.8 0.00 0.03 0.00 84 1009.0
20260507091558 15 35 0.0 6.4 0.00 0.03 0.00 85 1008.8
20260507084554 15 350 0.0 4.8 0.00 0.03 0.00 88 1008.4
20260507083049 16 5 0.0 6.4 0.00 0.03 0.00 88 1008.5
20260507081547 16 74 0.0 11.3 0.00 0.03 0.00 87 1008.4
20260507080046 16 57 0.0 4.8 0.00 0.03 0.00 86 1008.3
20260507074545 17 163 0.0 3.2 0.00 0.03 0.00 86 1008.0
20260507073039 17 164 0.0 4.8 0.00 0.03 0.00 86 1007.5
20260507071534 18 164 0.0 3.2 0.00 0.03 0.00 88 1007.1
20260507070033 18 155 0.0 0.0 0.00 0.03 0.00 87 1006.8
20260507064530 19 155 0.0 0.0 0.00 0.03 0.00 86 1006.7
20260507063031 20 155 0.0 1.6 0.00 0.03 0.00 85 1006.8
20260507061527 20 155 0.0 0.0 0.00 0.03 0.00 84 1006.7
20260507060027 20 155 0.0 0.0 0.00 0.03 0.00 83 1007.2
20260507054521 20 155 0.0 6.4 0.00 0.03 0.00 83 1007.1
20260507053020 20 120 4.8 11.3 0.00 0.03 0.00 84 1007.2
20260507051519 20 121 4.8 12.9 0.00 0.03 0.00 83 1007.2
20260507050016 20 133 6.4 16.1 0.00 0.03 0.00 83 1007.4
20260507044513 20 134 4.8 14.5 0.00 0.03 0.00 82 1007.5
20260507043013 20 132 9.7 17.7 0.00 0.03 0.00 82 1007.4
20260507041531 20 113 8.0 16.1 0.00 0.03 0.00 82 1007.4
20260507040011 20 125 6.4 12.9 0.00 0.03 0.03 82 1007.4
20260507034512 20 130 8.0 20.9 0.00 0.03 0.03 82 1007.2
20260507033011 20 124 9.7 17.7 0.00 0.03 0.03 82 1007.3
20260507031507 20 140 8.0 16.1 0.00 0.03 0.03 82 1007.2
20260507030006 20 125 9.7 12.9 0.00 0.03 0.03 82 1007.2
20260507024506 20 134 4.8 17.7 0.00 0.03 0.03 81 1007.4
20260507023005 20 134 4.8 12.9 0.00 0.03 0.03 81 1007.5
20260507021505 20 143 6.4 14.5 0.00 0.03 0.03 81 1007.7
20260507020005 20 132 11.3 16.1 0.00 0.03 0.03 81 1007.5
20260507014514 20 134 9.7 17.7 0.00 0.03 0.03 81 1007.3
20260507013015 20 133 8.0 14.5 0.00 0.03 0.03 81 1007.5
20260507011504 20 134 8.0 14.5 0.00 0.03 0.03 81 1007.8
20260507010002 20 140 6.4 12.9 0.00 0.03 0.03 80 1007.7
20260507004600 20 126 6.4 11.3 0.00 0.03 0.03 80 1007.8
20260507003059 21 126 6.4 12.9 0.00 0.03 0.03 78 1007.6
20260507001620 21 122 8.0 12.9 0.00 0.03 0.03 78 1007.4
20260507000101 21 132 8.0 14.5 0.00 0.03 0.03 75 1007.5
20260506234557 21 132 6.4 14.5 0.00 0.03 0.03 75 1007.3
20260506233107 22 136 8.0 14.5 0.00 0.03 0.03 73 1007.6
20260506231556 22 124 6.4 17.7 0.00 0.03 0.03 72 1007.4
20260506230157 22 135 8.0 16.1 0.00 0.03 0.03 72 1007.5
20260506224555 22 140 9.7 20.9 0.00 0.03 0.03 72 1007.3
20260506223108 22 138 11.3 19.3 0.00 0.03 0.03 73 1007.3
20260506221559 22 165 8.0 17.7 0.00 0.03 0.03 74 1007.6
20260506220051 22 120 4.8 16.1 0.00 0.03 0.03 74 1007.5
20260506214600 22 120 4.8 12.9 0.00 0.03 0.03 74 1007.6
20260506213050 21 129 6.4 17.7 0.00 0.03 0.03 75 1007.4
20260506211547 21 127 6.4 16.1 0.00 0.03 0.03 76 1007.3
20260506210046 21 127 3.2 12.9 0.00 0.03 0.03 76 1007.8
20260506204545 21 135 1.6 8.0 0.00 0.03 0.03 75 1007.2
20260506203046 21 136 4.8 11.3 0.00 0.03 0.03 75 1007.1
20260506201543 21 132 3.2 12.9 0.00 0.03 0.03 75 1007.3
20260506194541 21 142 9.7 17.7 0.00 0.03 0.03 75 1007.4
20260506193041 21 132 14.5 27.4 0.00 0.03 0.03 75 1007.6
20260506191539 20 137 16.1 25.7 0.00 0.03 0.03 76 1007.7
20260506190036 20 140 9.7 24.1 0.00 0.03 0.03 77 1008.3
20260506184534 20 136 11.3 17.7 0.00 0.03 0.03 78 1008.3
20260506183034 20 134 6.4 19.3 0.00 0.03 0.03 80 1008.6
20260506181536 20 125 9.7 22.5 0.00 0.03 0.03 79 1008.8
20260506180039 20 138 9.7 17.7 0.00 0.03 0.03 80 1008.7
20260506174530 20 122 12.9 22.5 0.00 0.03 0.03 80 1008.9
20260506173031 19 119 14.5 25.7 0.00 0.03 0.03 81 1009.1
20260506171544 19 116 12.9 22.5 0.00 0.03 0.03 83 1008.8
20260506170026 18 93 12.9 25.7 0.03 0.03 0.03 84 1009.0
20260506164524 18 121 12.9 24.1 0.03 0.03 0.03 85 1009.2
20260506163025 18 113 14.5 24.1 0.03 0.03 0.03 86 1009.5
20260506161534 18 144 16.1 24.1 0.03 0.03 0.03 86 1010.0
20260506160018 18 134 16.1 27.4 0.00 0.00 0.00 84 1010.2
20260506154515 18 130 11.3 24.1 0.00 0.00 0.00 80 1010.5
20260506153012 19 134 11.3 30.6 0.00 0.00 0.00 75 1010.6
20260506151512 20 129 19.3 29.0 0.00 0.00 0.00 72 1010.7
20260506150010 20 136 11.3 25.7 0.00 0.00 0.00 73 1010.6
20260506144510 20 121 19.3 27.4 0.00 0.00 0.00 71 1010.3
20260506143011 20 141 16.1 27.4 0.00 0.00 0.00 72 1010.3
20260506141509 20 110 14.5 25.7 0.00 0.00 0.00 71 1010.2
20260506140010 20 128 17.7 33.8 0.00 0.00 0.00 71 1010.5
20260506134519 20 135 16.1 24.1 0.00 0.00 0.00 71 1010.3
20260506133007 20 120 14.5 29.0 0.00 0.00 0.00 72 1010.3
20260506131506 20 114 20.9 32.2 0.00 0.00 0.00 73 1010.5
20260506130006 19 91 17.7 27.4 0.00 0.00 0.00 75 1010.4
20260506124510 19 146 17.7 29.0 0.00 0.00 0.00 74 1010.5
20260506123003 19 104 19.3 35.4 0.00 0.00 0.00 74 1010.5
20260506121507 19 146 19.3 32.2 0.00 0.00 0.00 74 1010.6
20260506120008 19 119 22.5 37.0 0.00 0.00 0.00 74 1010.7
20260506114503 18 126 17.7 32.2 0.00 0.00 0.00 74 1010.8
20260506113101 18 132 16.1 30.6 0.00 0.00 0.00 74 1010.6
20260506111618 18 119 14.5 25.7 0.00 0.00 0.00 74 1010.3
20260506110059 18 130 16.1 27.4 0.00 0.00 0.00 74 1010.5
20260506104604 18 134 14.5 30.6 0.00 0.00 0.00 73 1010.5
20260506103104 18 108 12.9 24.1 0.00 0.00 0.00 73 1010.4
20260506101554 18 132 16.1 25.7 0.00 0.00 0.00 74 1010.4